Regional Weather Roundup
Issued by NWS Cleveland, OH

Home | Current Version | Previous Version | Graphics & Text | Print | Product List | Glossary On
Versions: 1 2 3 4 5 6 7 8 9 10 11 12 13 14 15 16 17 18 19 20 21 22 23 24 25 26 27 28 29 30 31 32 33 34 35 36 37 38 39 40 41 42 43 44 45 46 47 48 49 50
000
ASUS41 KCLE 231400
RWRCLE
OHIO REGIONAL WEATHER ROUNDUP
NATIONAL WEATHER SERVICE WILMINGTON, OH
900 AM EST TUE JAN 23 2018

NOTE: "FAIR" INDICATES FEW OR NO CLOUDS BELOW 12,000 FEET WITH NO
SIGNIFICANT WEATHER AND/OR OBSTRUCTIONS TO VISIBILITY.

OHZ001>008-015>018-024>027-034-035-043-044-231500-
   NORTHWEST OHIO

CITY           SKY/WX    TMP DP  RH WIND       PRES   REMARKS
DEFIANCE       CLOUDY    37  33  85 SW14G20   29.62R
FINDLAY        LGT RAIN  37  33  85 SW15      29.63R
TOLEDO EXPRESS CLOUDY    37  36  96 SW15      29.60R
TOLEDO EXEC    CLOUDY    37  34  89 SW15      29.62R
LIMA           CLOUDY    37  34  89 SW17G25   29.65R
$$

OHZ009>014-019>023-028>033-038-089-231500-
   NORTHEAST OHIO

CITY           SKY/WX    TMP DP  RH WIND       PRES   REMARKS
CLE-HOPKINS    CLOUDY    40  35  83 SW13      29.64R
CLE-LAKEFRONT  PTSUNNY   39  33  79 SW15      29.61R
CUY CO. ARPT   CLOUDY    43  30  61 W17G23    29.60S
LORAIN-ELYRIA  CLOUDY    37  31  78 SW12      29.62R
ASHTABULA      CLOUDY    45  41  86 SW9       29.56S
AKRON-CANTON   LGT RAIN  43  33  68 W16G25    29.62R
WOOSTER        NOT AVBL
MANSFIELD      CLOUDY    36  35  96 SW12      29.64R
YOUNGSTOWN     LGT RAIN  45  37  73 SW9G20    29.57F
$$

OHZ042-051>053-060>062-070>072-077>081-231500-
  SOUTHWEST OHIO

CITY           SKY/WX    TMP DP  RH WIND       PRES   REMARKS
CINC-COVINGTON PTSUNNY   37  33  85 W10       29.77R
CINC-LUNKEN    LGT RAIN  38  33  82 W23G30    29.79R
HAMILTON       CLOUDY    37  33  85 W13G26    29.78R
DAYTON         NOT AVBL
WRIGHT-PAT AFB LGT RAIN  38  31  75 SW16      29.72R
DAYTON GENERAL LGT RAIN  37  33  85 SW13G21   29.73R
WILMINGTON     FLURRIES  37  32  82 SW16G26   29.73R
$$

OHZ036-037-039>041-045>050-054>059-063>069-073>076-082>088-231500-
  CENTRAL AND SOUTHEAST OHIO

CITY           SKY/WX    TMP DP  RH WIND       PRES   REMARKS
COLUMBUS       CLOUDY    39  33  79 SW13G22   29.71R
OSU AIRPORT    PTSUNNY   38  33  82 SW13G22   29.69R
BOLTON FIELD   CLOUDY    37  34  87 SW13G18   29.71R
RICKENBACK AFB NOT AVBL
NEWARK         LGT RAIN  39  32  76 SW23G31   29.70R
MARION         CLOUDY    37  34  89 SW13G20   29.66R
LANCASTER      CLOUDY    39  33  79 W10G21    29.73R
ZANESVILLE     LGT RAIN  45  31  58 W20G30    29.69R
NEW PHILLY     CLOUDY    45  31  58 SW12G25   29.67R
$$



USA.gov is the U.S. government's official web portal to all federal, state and local government web resources and services.